Weather History for Kilimanjaro, Tanzania

Change the Weather History Date:

Monday, January 13, 2014

  Actual Average Record
Temperature  
Mean Temperature 79 °F -  
Max Temperature 95 °F - - ()
Min Temperature 63 °F - - ()
Cooling Degree Days 14    
Growing Degree Days 29 (Base 50)    
Moisture  
Dew Point 60 °F    
Average Humidity 50    
Maximum Humidity 83    
Minimum Humidity 19    
Precipitation  
Precipitation 0.00 in - - ()
Sea Level Pressure  
Sea Level Pressure 29.93 in    
Wind  
Wind Speed 9 mph ()    
Max Wind Speed 24 mph    
Max Gust Speed -    
Visibility 9.6 miles    
Events      
T = Trace of Precipitation, MM = Missing Value Source: Averaged Metar Reports

Daily Weather History Graph

Daily Weather History Graph

Search for Another Location

Airport:

Trip Planner

Search our weather history database for the weather conditions in past years. The results will help you decide how hot, cold, wet, or windy it might be!

Date:

Astronomy

Jan. 13, 2014 Rise Set
Actual Time 6:31 AM EAT 6:49 PM EAT
Civil Twilight 6:08 AM EAT 7:11 PM EAT
Nautical Twilight 5:42 AM EAT 7:37 PM EAT
Astronomical Twilight 5:16 AM EAT 8:03 PM EAT
Moon 4:42 PM EAT (1/13) 4:07 AM EAT (1/13)
Length of Visible Light 13h 02m
Length of Day
12h 18m
Waxing Gibbous, 93% of the Moon is Illuminated
Jan 13
Waxing Gibbous
Jan 16
Full
Jan 24
Last Quarter
Jan 31
New
Feb 6
First Quarter

Hourly Weather History & Observations

Time (EAT) Temp. Heat Index Dew Point Humidity Pressure Visibility Wind Dir Wind Speed Gust Speed Precip Events Conditions
12:00 AM 75 °F - 61 °F 53%  in 19 mi East 6.9 mph - -   Scattered Clouds
12:00 AM 75.2 °F - 60.8 °F 61% 29.98 in 6.2 mi East 6.9 mph - N/A   Partly Cloudy
3:00 AM 70 °F - 61 °F 66%  in 19 mi ENE 3.5 mph - -   Scattered Clouds
4:00 AM 68.0 °F - 59.0 °F 73% 29.98 in 6.2 mi North 4.6 mph - N/A   Partly Cloudy
5:00 AM 66.2 °F - 59.0 °F 78% 29.95 in 6.2 mi North 5.8 mph - N/A   Partly Cloudy
6:00 AM 65 °F - 59 °F 76%  in 19 mi NNE 4.6 mph - -   Scattered Clouds
6:00 AM 64.4 °F - 59.0 °F 83% 29.98 in 6.2 mi NNE 4.6 mph - N/A   Partly Cloudy
8:00 AM 69.8 °F - 60.8 °F 73% 30.04 in 6.2 mi SW 3.5 mph - N/A   Mostly Cloudy
9:00 AM 76 °F - 60 °F 49%  in 19 mi ESE 5.8 mph - -   Scattered Clouds
9:00 AM 77.0 °F - 60.8 °F 57% 30.04 in 6.2 mi ESE 5.8 mph - N/A   Partly Cloudy
10:00 AM 80.6 °F 81.5 °F 60.8 °F 51% 30.01 in 6.2 mi East 10.4 mph - N/A   Partly Cloudy
11:00 AM 86.0 °F 86.1 °F 60.8 °F 43% 30.01 in 6.2 mi NE 6.9 mph - N/A   Partly Cloudy
1:00 PM 91.4 °F 90.7 °F 59.0 °F 34% 29.95 in 6.2 mi East 11.5 mph - N/A   Partly Cloudy
2:00 PM 91.4 °F 90.7 °F 59.0 °F 34% 29.89 in 6.2 mi Calm Calm - N/A   Partly Cloudy
3:00 PM 94 °F - 57 °F 19%  in 19 mi East 16.1 mph - -   Scattered Clouds
3:00 PM 95.0 °F 93.7 °F 57.2 °F 28% 29.86 in 6.2 mi East 16.1 mph - N/A   Partly Cloudy
4:00 PM 93.2 °F 91.3 °F 55.4 °F 28% 29.83 in 6.2 mi East 16.1 mph - N/A   Scattered Clouds
5:00 PM 91.4 °F 89.9 °F 57.2 °F 31% 29.83 in 6.2 mi East 11.5 mph - N/A   Scattered Clouds
6:00 PM 90 °F - 59 °F 25%  in 19 mi East 23.0 mph - -   Partly Cloudy
6:00 PM 89.6 °F 88.9 °F 59.0 °F 36% 29.83 in 6.2 mi East 23.0 mph - N/A   Scattered Clouds
7:00 PM 84.2 °F 83.8 °F 59.0 °F 42% 29.86 in 6.2 mi East 21.9 mph - N/A   Scattered Clouds
8:00 PM 82.4 °F 82.9 °F 60.8 °F 48% 29.89 in 6.2 mi East 24.2 mph - N/A   Partly Cloudy
9:00 PM 80 °F - 61 °F 42%  in 19 mi East 21.9 mph - -   Scattered Clouds
9:00 PM 78.8 °F - 60.8 °F 54% 29.89 in 6.2 mi East 21.9 mph - N/A   Partly Cloudy
10:00 PM 77.0 °F - 62.6 °F 61% 29.95 in 6.2 mi ENE 15.0 mph - N/A   Partly Cloudy
11:00 PM 75.2 °F - 62.6 °F 65% 29.95 in 6.2 mi East 13.8 mph - N/A   Partly Cloudy